KOMPSAT-3A

Last updated on Mon Sep 07 2026 00:02:45 GMT+0000 (Coordinated Universal Time)

1 40536U 15014A 26249.58637515 .00017226 00000+0 21765-3 0 9993 2 40536 97.6930 247.1917 0048411 236.3907 123.2723 15.58175376634475
UTC large
Height (km)
Speed (km/s)
/
Latitude / Longitude
Inclination (degrees)
Orbital Period (minutes)
Azimuth
Elevation
Range (km)
Doppler Factor

Next 0 passes for location: London (51.5072 / 0.1276)

No passes found over London.
KOMPSAT-3A